This is the latest recevied weather packets stored in our database for station/object K3PPP. If no packets are shown the sender has not sent any weather packets the latest 10 day(s).
| Time | Temp. | Humidity | Pressure | Rain* | Wind** | Luminosity | Snow |
|---|---|---|---|---|---|---|---|
| 1777936836 | 17.22° C | 58% | 1010 hPa | 0 mm | - | 40 W/m² | - |
| 1777936532 | 17.22° C | 59% | 1010.1 hPa | 0 mm | - | 30 W/m² | - |
| 1777936228 | 17.22° C | 58% | 1010.2 hPa | 0 mm | - | 25 W/m² | - |
| 1777935925 | 17.22° C | 58% | 1010.1 hPa | 0 mm | - | 32 W/m² | - |
| 1777935624 | 17.22° C | 58% | 1010.3 hPa | 0 mm | - | 49 W/m² | - |
| 1777935320 | 17.78° C | 57% | 1010.3 hPa | 0 mm | - | 36 W/m² | - |
| 1777935017 | 17.78° C | 56% | 1010.3 hPa | 0 mm | - | 45 W/m² | - |
| 1777934714 | 17.78° C | 55% | 1010.2 hPa | 0 mm | - | 89 W/m² | - |
| 1777934411 | 17.78° C | 55% | 1010 hPa | 0 mm | - | 92 W/m² | - |
| 1777934108 | 17.78° C | 55% | 1010 hPa | 0 mm | - | 76 W/m² | - |
| 1777933804 | 17.78° C | 55% | 1009.8 hPa | 0 mm | - | 100 W/m² | - |
| 1777933501 | 17.78° C | 55% | 1010 hPa | 0 mm | - | 39 W/m² | - |
| 1777933198 | 17.78° C | 55% | 1010.3 hPa | 0 mm | - | 83 W/m² | - |
| 1777932895 | 18.33° C | 54% | 1009.8 hPa | 0 mm | - | 93 W/m² | - |
| 1777932592 | 18.33° C | 54% | 1009.7 hPa | 0 mm | - | 90 W/m² | - |
| 1777932289 | 18.33° C | 53% | 1009.9 hPa | 0 mm | - | 137 W/m² | - |
| 1777931985 | 18.89° C | 52% | 1010 hPa | 0 mm | - | 72 W/m² | - |
| 1777931682 | 18.89° C | 51% | 1010.1 hPa | 0 mm | - | 280 W/m² | - |
| 1777931379 | 18.89° C | 52% | 1010 hPa | 0 mm | - | 238 W/m² | - |
| 1777931075 | 18.89° C | 53% | 1009.9 hPa | 0 mm | - | 186 W/m² | - |
| 1777930772 | 18.89° C | 52% | 1010.1 hPa | 0 mm | - | 168 W/m² | - |
| 1777930468 | 19.44° C | 51% | 1009.9 hPa | 0 mm | - | 246 W/m² | - |
| 1777930166 | 19.44° C | 51% | 1010.1 hPa | 0 mm | - | 210 W/m² | - |
| 1777929861 | 18.89° C | 54% | 1009.8 hPa | 0 mm | - | 190 W/m² | - |
| 1777929559 | 18.33° C | 53% | 1009.9 hPa | 0 mm | - | 116 W/m² | - |
* Rain latest hour (hover to see other rain measurements)
** Current wind speed in m/s (hover to see current wind gust speed)